�N����,����,�g�[���i���ԁj���x,�g�[�����x,��g�[���i���ցj���x,����
 2003/11/01, 0:00,24.8,54,23.2,19.7
 2003/11/01, 0:15,24.8,54,23.2,19.7
 2003/11/01, 0:30,24.8,54,23.2,19.8
 2003/11/01, 0:45,24.8,54,23.3,19.8
 2003/11/01, 1:00,24.9,54,23.2,19.9
 2003/11/01, 1:15,24.8,54,23.3,19.9
 2003/11/01, 1:30,24.9,54,23.3,19.9
 2003/11/01, 1:45,24.8,54,23.3,20
 2003/11/01, 2:00,24.8,54,23.3,20
 2003/11/01, 2:15,24.8,54,23.2,20.1
 2003/11/01, 2:30,24.7,54,23.1,20.1
 2003/11/01, 2:45,24.7,54,23.2,20.2
 2003/11/01, 3:00,24.7,54,23.1,20.3
 2003/11/01, 3:15,24.6,54,23.2,20.3
 2003/11/01, 3:30,24.6,54,23.2,20.4
 2003/11/01, 3:45,24.6,54,23.1,20.4
 2003/11/01, 4:00,24.6,55,23.1,20.5
 2003/11/01, 4:15,24.6,55,23,20.5
 2003/11/01, 4:30,24.5,55,23.1,20.5
 2003/11/01, 4:45,24.5,54,23.1,20.6
 2003/11/01, 5:00,24.5,55,23.1,20.6
 2003/11/01, 5:15,24.5,55,23.1,20.7
 2003/11/01, 5:30,24.5,55,23.1,20.7
 2003/11/01, 5:45,24.5,55,23,20.8
 2003/11/01, 6:00,24.5,55,23,20.8
 2003/11/01, 6:15,24.5,55,23.1,20.9
 2003/11/01, 6:30,24.5,55,23,20.9
 2003/11/01, 6:45,24.6,56,23.2,19.5
 2003/11/01, 7:00,24.7,57,23.3,19.5
 2003/11/01, 7:15,24.8,57,23.4,19.5
 2003/11/01, 7:30,24.8,57,23.6,19.5
 2003/11/01, 7:45,24.8,57,23.7,19.6
 2003/11/01, 8:00,24.8,57,23.6,19.6
 2003/11/01, 8:15,24.9,56,23.5,19.7
 2003/11/01, 8:30,24.9,57,23.4,19.7
 2003/11/01, 8:45,24.9,56,23.5,19.7
 2003/11/01, 9:00,24.8,56,23.4,20
 2003/11/01, 9:15,24.8,56,23.5,18.3
 2003/11/01, 9:30,24.8,55,23.6,18.4
 2003/11/01, 9:45,24.7,55,23.7,18.5
 2003/11/01,10:00,24.7,55,23.6,18.5
 2003/11/01,10:15,24.7,56,23.7,18.6
 2003/11/01,10:30,24.8,56,23.9,18.6
 2003/11/01,10:45,24.9,56,23.9,18.7
 2003/11/01,11:00,25.1,55,23.9,18.8
 2003/11/01,11:15,25.1,55,24.1,18.8
 2003/11/01,11:30,25.2,55,24.1,18.9
 2003/11/01,11:45,25.3,55,24.2,18.9
 2003/11/01,12:00,25.5,54,24.2,19
 2003/11/01,12:15,25.7,53,24.2,18.6
 2003/11/01,12:30,26.1,53,24,18.6
 2003/11/01,12:45,26.1,53,24.1,18.7
 2003/11/01,13:00,26,52,24.1,18.7
 2003/11/01,13:15,26.2,53,24.1,18.7
 2003/11/01,13:30,26.5,53,24.1,18.8
 2003/11/01,13:45,26.7,52,24.1,18.8
 2003/11/01,14:00,26.8,52,24.2,18.9
 2003/11/01,14:15,26.9,51,24.2,18.9
 2003/11/01,14:30,26.9,51,24.2,19
 2003/11/01,14:45,26.7,51,24.3,19
 2003/11/01,15:00,26.4,51,24.2,19.1
 2003/11/01,15:15,26.1,51,24.1,19.2
 2003/11/01,15:30,25.9,52,24,20
 2003/11/01,15:45,25.7,52,24,20
 2003/11/01,16:00,25.5,53,24,20.1
 2003/11/01,16:15,25.4,53,24,20.1
 2003/11/01,16:30,25.3,53,23.9,20.1
 2003/11/01,16:45,25.2,53,23.9,20.2
 2003/11/01,17:00,25.2,53,23.8,20.6
 2003/11/01,17:15,25.2,52,23.8,20.6
 2003/11/01,17:30,25.2,52,23.8,20.6
 2003/11/01,17:45,25.2,52,23.8,20.7
 2003/11/01,18:00,25.2,53,23.8,20.7
 2003/11/01,18:15,25.2,53,23.8,20.8
 2003/11/01,18:30,25.2,52,23.7,20.8
 2003/11/01,18:45,25.1,51,23.6,21.1
 2003/11/01,19:00,24.9,52,23.5,21.1
 2003/11/01,19:15,24.9,52,23.5,21.2
 2003/11/01,19:30,24.8,51,23.4,18.9
 2003/11/01,19:45,24.8,51,23.4,19
 2003/11/01,20:00,24.9,52,23.4,19
 2003/11/01,20:15,24.8,52,23.4,19.1
 2003/11/01,20:30,25.1,54,23.4,19.1
 2003/11/01,20:45,25.2,53,23.5,19.2
 2003/11/01,21:00,25.2,53,23.6,19.1
 2003/11/01,21:15,25.2,52,23.7,18.3
 2003/11/01,21:30,25.1,52,23.6,18.4
 2003/11/01,21:45,25.1,52,23.5,18.9
 2003/11/01,22:00,25,51,23.6,18.9
 2003/11/01,22:15,25,51,23.6,19
 2003/11/01,22:30,24.9,51,23.6,19.2
 2003/11/01,22:45,24.9,51,23.6,19.2
 2003/11/01,23:00,24.8,51,23.5,19.3
 2003/11/01,23:15,24.8,51,23.5,19.3
 2003/11/01,23:30,24.8,51,23.5,19.4
 2003/11/01,23:45,24.8,51,23.4,19.4
 2003/11/02, 0:00,24.7,51,23.4,19.5
 2003/11/02, 0:15,24.7,51,23.3,19.5
 2003/11/02, 0:30,24.7,51,23.3,19.6
 2003/11/02, 0:45,24.7,51,23.4,19.6
 2003/11/02, 1:00,24.7,51,23.3,19.7
 2003/11/02, 1:15,24.7,51,23.4,19.7
 2003/11/02, 1:30,24.6,51,23.4,19.7
 2003/11/02, 1:45,24.6,51,23.3,19.7
 2003/11/02, 2:00,24.5,52,23.3,19.8
 2003/11/02, 2:15,24.4,52,23.3,19.8
 2003/11/02, 2:30,24.4,52,23.3,19.8
 2003/11/02, 2:45,24.4,52,23.3,19.9
 2003/11/02, 3:00,24.3,52,23.2,19.9
 2003/11/02, 3:15,24.2,52,23.2,20
 2003/11/02, 3:30,24.2,52,23.2,20
 2003/11/02, 3:45,24.3,52,23.2,20.1
 2003/11/02, 4:00,24.3,52,23.1,20.1
 2003/11/02, 4:15,24.2,52,23.2,20.2
 2003/11/02, 4:30,24.3,52,23.1,20.2
 2003/11/02, 4:45,24.2,52,23.1,20.3
 2003/11/02, 5:00,24.2,52,23.1,20.3
 2003/11/02, 5:15,24.1,53,23.1,20.4
 2003/11/02, 5:30,24.1,53,23.1,20.4
 2003/11/02, 5:45,24.1,53,23.1,20.5
 2003/11/02, 6:00,24.1,53,23,20.5
 2003/11/02, 6:15,24.1,53,23.1,20.6
 2003/11/02, 6:30,24.1,53,23.1,20.6
 2003/11/02, 6:45,24.1,53,23.1,20.7
 2003/11/02, 7:00,24,53,23.1,20.4
 2003/11/02, 7:15,24.1,52,22.9,20.5
 2003/11/02, 7:30,24.1,52,22.9,20.5
 2003/11/02, 7:45,24,53,22.8,18.6
 2003/11/02, 8:00,24.1,53,22.7,18.6
 2003/11/02, 8:15,24.2,54,22.7,18.7
 2003/11/02, 8:30,24.3,53,22.9,18.7
 2003/11/02, 8:45,24.4,53,23.2,18.4
 2003/11/02, 9:00,24.4,53,23.1,18.4
 2003/11/02, 9:15,24.3,53,23.1,18.5
 2003/11/02, 9:30,24.3,54,23.1,18.5
 2003/11/02, 9:45,24.3,54,23,18.6
 2003/11/02,10:00,24.3,54,23,18.6
 2003/11/02,10:15,24.2,54,23,18.7
 2003/11/02,10:30,24.2,54,23,18.8
 2003/11/02,10:45,24.2,54,22.9,18.8
 2003/11/02,11:00,24.2,54,22.9,18.9
 2003/11/02,11:15,24.2,54,23,18.9
 2003/11/02,11:30,24.2,54,22.9,19
 2003/11/02,11:45,24.2,54,23,19
 2003/11/02,12:00,24.2,54,23,19.1
 2003/11/02,12:15,24.2,54,23,19.2
 2003/11/02,12:30,24.1,55,22.9,19.2
 2003/11/02,12:45,24.1,55,22.9,19.3
 2003/11/02,13:00,24.1,55,23,19.3
 2003/11/02,13:15,24.1,55,23,19.4
 2003/11/02,13:30,24.2,55,22.9,19.4
 2003/11/02,13:45,24.1,55,22.9,19.5
 2003/11/02,14:00,24.2,55,22.9,19.5
 2003/11/02,14:15,24.2,56,23,19.6
 2003/11/02,14:30,24.2,56,23,19.6
 2003/11/02,14:45,24.2,56,22.9,19.7
 2003/11/02,15:00,24.2,56,23.1,19.7
 2003/11/02,15:15,24.2,56,23,19.8
 2003/11/02,15:30,24.3,56,23,19.8
 2003/11/02,15:45,24.2,56,23.1,19.9
 2003/11/02,16:00,24.2,56,23.1,19.9
 2003/11/02,16:15,24.2,56,23.1,20
 2003/11/02,16:30,24.2,56,23.1,20
 2003/11/02,16:45,24.2,56,23,20.1
 2003/11/02,17:00,24.2,57,23,20.1
 2003/11/02,17:15,24.2,57,23.1,20.2
 2003/11/02,17:30,24.1,57,23,20.2
 2003/11/02,17:45,24.2,57,23,20.3
 2003/11/02,18:00,24.2,57,23.1,20.3
 2003/11/02,18:15,24.1,57,23.1,20.4
 2003/11/02,18:30,24.2,57,23.1,20.4
 2003/11/02,18:45,24.1,57,23.1,20.5
 2003/11/02,19:00,24.1,57,23,20.6
 2003/11/02,19:15,24.1,57,23,20.6
 2003/11/02,19:30,24.1,57,23,20.6
 2003/11/02,19:45,24.1,57,23,20.7
 2003/11/02,20:00,24,57,23,20.7
 2003/11/02,20:15,24.1,57,23,20.8
 2003/11/02,20:30,24.1,58,22.9,21
 2003/11/02,20:45,24.3,59,23.1,20.5
 2003/11/02,21:00,24.4,59,23.2,20.5
 2003/11/02,21:15,24.5,59,23.2,20.5
 2003/11/02,21:30,24.4,59,23,20.6
 2003/11/02,21:45,24.4,59,23.1,19.2
 2003/11/02,22:00,24.5,62,23.1,19.2
 2003/11/02,22:15,24.5,61,23.1,19.3
 2003/11/02,22:30,24.5,61,23.1,19.4
 2003/11/02,22:45,24.4,60,23.1,19.7
 2003/11/02,23:00,24.5,60,23.2,19.6
 2003/11/02,23:15,24.6,60,23.1,19.6
 2003/11/02,23:30,24.7,60,23.3,19.5
 2003/11/02,23:45,24.7,60,23.4,19.4
 2003/11/03, 0:00,24.7,60,23.4,19.4
 2003/11/03, 0:15,24.8,60,23.4,19.5
 2003/11/03, 0:30,24.8,60,23.4,19.5
 2003/11/03, 0:45,24.9,60,23.5,19.6
 2003/11/03, 1:00,24.9,60,23.5,19.6
 2003/11/03, 1:15,24.9,60,23.5,19.7
 2003/11/03, 1:30,25,60,23.6,19.7
 2003/11/03, 1:45,25,60,23.6,19.8
 2003/11/03, 2:00,25,60,23.6,19.8
 2003/11/03, 2:15,25,60,23.7,19.9
 2003/11/03, 2:30,25,60,23.6,19.9
 2003/11/03, 2:45,24.9,60,23.7,20
 2003/11/03, 3:00,24.9,60,23.6,20
 2003/11/03, 3:15,24.8,60,23.6,20.1
 2003/11/03, 3:30,24.8,60,23.6,20.1
 2003/11/03, 3:45,24.8,60,23.6,20.2
 2003/11/03, 4:00,24.7,60,23.6,20.2
 2003/11/03, 4:15,24.7,60,23.6,20.3
 2003/11/03, 4:30,24.7,60,23.6,20.4
 2003/11/03, 4:45,24.6,61,23.6,20.4
 2003/11/03, 5:00,24.6,61,23.6,20.5
 2003/11/03, 5:15,24.6,61,23.6,20.5
 2003/11/03, 5:30,24.6,61,23.6,20.6
 2003/11/03, 5:45,24.6,61,23.6,20.6
 2003/11/03, 6:00,24.6,61,23.6,20.7
 2003/11/03, 6:15,24.6,61,23.6,20.8
 2003/11/03, 6:30,24.6,61,23.6,20.8
 2003/11/03, 6:45,24.6,61,23.6,20.9
 2003/11/03, 7:00,24.6,61,23.6,20.9
 2003/11/03, 7:15,24.6,61,23.6,21
 2003/11/03, 7:30,24.7,61,23.6,21
 2003/11/03, 7:45,24.8,61,23.6,19.2
 2003/11/03, 8:00,24.8,62,23.7,19.4
 2003/11/03, 8:15,24.9,61,23.7,19.5
 2003/11/03, 8:30,24.8,62,23.7,19.6
 2003/11/03, 8:45,25.1,65,23.7,19.6
 2003/11/03, 9:00,25.2,63,23.8,19.7
 2003/11/03, 9:15,25.2,63,23.8,19.2
 2003/11/03, 9:30,25.1,62,24.1,19.2
 2003/11/03, 9:45,25,62,24.2,19.3
 2003/11/03,10:00,25,61,24.2,19.4
 2003/11/03,10:15,24.9,61,24.2,19.4
 2003/11/03,10:30,24.9,61,24.3,19.5
 2003/11/03,10:45,24.8,61,24.3,19.5
 2003/11/03,11:00,24.9,63,24.2,19.6
 2003/11/03,11:15,24.9,63,24.1,19.6
 2003/11/03,11:30,24.8,62,24,20
 2003/11/03,11:45,25,64,23.9,20
 2003/11/03,12:00,25.1,65,24,20.1
 2003/11/03,12:15,25.2,65,24,20.1
 2003/11/03,12:30,25.3,65,24.1,20.2
 2003/11/03,12:45,25.3,65,24.2,20.2
 2003/11/03,13:00,25.3,65,24.2,20.4
 2003/11/03,13:15,25.3,65,24.2,20
 2003/11/03,13:30,25.3,65,24.2,19.8
 2003/11/03,13:45,25.3,65,24.2,19.8
 2003/11/03,14:00,25.3,64,24.2,19.9
 2003/11/03,14:15,25.3,64,24.2,19.4
 2003/11/03,14:30,25.3,64,24.2,19.6
 2003/11/03,14:45,25.3,64,24.2,19.7
 2003/11/03,15:00,25.3,65,24.2,19.7
 2003/11/03,15:15,25.3,65,24.2,19.7
 2003/11/03,15:30,25.3,64,24.2,19.8
 2003/11/03,15:45,25.3,64,24.3,20.4
 2003/11/03,16:00,25.4,65,24.2,20.5
 2003/11/03,16:15,25.3,65,24.3,20.5
 2003/11/03,16:30,25.3,64,24.3,20.6
 2003/11/03,16:45,25.3,64,24.3,20.6
 2003/11/03,17:00,25.3,65,24.3,19.6
 2003/11/03,17:15,25.3,65,24.3,19.7
 2003/11/03,17:30,25.3,65,24.3,19.7
 2003/11/03,17:45,25.4,65,24.3,19.8
 2003/11/03,18:00,25.4,64,24.3,19.8
 2003/11/03,18:15,25.3,65,24.2,19.9
 2003/11/03,18:30,25.3,65,24.2,19.9
 2003/11/03,18:45,25.3,65,24.2,20
 2003/11/03,19:00,25.3,67,24.2,20.1
 2003/11/03,19:15,25.3,66,24.1,20.1
 2003/11/03,19:30,25.2,66,24.1,20.7
 2003/11/03,19:45,25.2,65,24.1,20.7
 2003/11/03,20:00,25.5,71,24.2,20.8
 2003/11/03,20:15,25.6,70,24.3,20.8
 2003/11/03,20:30,25.6,68,24.4,20.4
 2003/11/03,20:45,25.6,67,24.4,20.4
 2003/11/03,21:00,25.6,66,24.4,20.5
 2003/11/03,21:15,25.6,66,24.4,20.5
 2003/11/03,21:30,25.6,67,24.5,20.6
 2003/11/03,21:45,25.8,66,24.5,20.6
 2003/11/03,22:00,25.7,66,24.5,20.1
 2003/11/03,22:15,25.7,66,24.5,20.1
 2003/11/03,22:30,25.8,65,24.5,19.6
 2003/11/03,22:45,25.8,66,24.5,19.6
 2003/11/03,23:00,25.9,66,24.5,19.7
 2003/11/03,23:15,25.8,66,24.5,19.7
 2003/11/03,23:30,25.8,65,24.5,19.3
 2003/11/03,23:45,25.8,65,24.6,19.4
 2003/11/04, 0:00,25.8,65,24.6,19.7
 2003/11/04, 0:15,25.8,64,24.6,19.7
 2003/11/04, 0:30,25.8,64,24.6,19.7
 2003/11/04, 0:45,25.7,64,24.5,19.8
 2003/11/04, 1:00,25.7,63,24.5,19.8
 2003/11/04, 1:15,25.7,64,24.5,19.9
 2003/11/04, 1:30,25.7,64,24.5,19.9
 2003/11/04, 1:45,25.7,64,24.6,20
 2003/11/04, 2:00,25.7,64,24.6,20.1
 2003/11/04, 2:15,25.7,64,24.6,20.1
 2003/11/04, 2:30,25.8,64,24.6,20.2
 2003/11/04, 2:45,25.8,64,24.5,20.3
 2003/11/04, 3:00,25.6,64,24.5,22.5
 2003/11/04, 3:15,25.6,64,24.5,21.1
 2003/11/04, 3:30,25.6,64,24.5,21.2
 2003/11/04, 3:45,25.6,64,24.5,21.2
 2003/11/04, 4:00,25.5,65,24.5,21.2
 2003/11/04, 4:15,25.6,65,24.4,21
 2003/11/04, 4:30,25.6,65,24.4,21
 2003/11/04, 4:45,25.4,64,24.2,19.9
 2003/11/04, 5:00,25.3,62,23.9,19.9
 2003/11/04, 5:15,25.2,61,23.8,20
 2003/11/04, 5:30,25.3,60,23.8,20
 2003/11/04, 5:45,25.3,60,24,20.1
 2003/11/04, 6:00,25.4,60,24.1,20.2
 2003/11/04, 6:15,25.5,60,24.3,19.9
 2003/11/04, 6:30,25.5,61,24.5,20
 2003/11/04, 6:45,25.6,60,24.6,20
 2003/11/04, 7:00,25.6,60,24.6,21
 2003/11/04, 7:15,25.6,60,24.5,20.5
 2003/11/04, 7:30,25.6,60,24.5,18.5
 2003/11/04, 7:45,25.6,60,24.4,18.4
 2003/11/04, 8:00,25.4,60,24.2,18.5
 2003/11/04, 8:15,25.3,59,24.2,18.5
 2003/11/04, 8:30,25.3,59,24.1,18.6
 2003/11/04, 8:45,25.2,57,23.9,18.7
 2003/11/04, 9:00,25.1,56,23.9,19.4
 2003/11/04, 9:15,25.1,55,23.9,19.4
 2003/11/04, 9:30,25.1,55,23.8,19.5
 2003/11/04, 9:45,25,54,23.8,19.5
 2003/11/04,10:00,25,54,23.8,19.6
 2003/11/04,10:15,25,54,23.8,19.6
 2003/11/04,10:30,25,53,23.7,19.3
 2003/11/04,10:45,25,53,23.5,19.4
 2003/11/04,11:00,25.1,52,23.4,19.4
 2003/11/04,11:15,25,51,23.2,19.5
 2003/11/04,11:30,25.1,50,23.3,19.2
 2003/11/04,11:45,25.3,50,23.4,19.2
 2003/11/04,12:00,25.4,50,23.5,19.3
 2003/11/04,12:15,25.7,50,23.6,19.3
 2003/11/04,12:30,25.9,50,23.7,19.4
 2003/11/04,12:45,26.1,50,23.7,19.4
 2003/11/04,13:00,26.2,49,23.9,19.5
 2003/11/04,13:15,26.3,49,23.9,19.5
 2003/11/04,13:30,26.5,49,24,19.6
 2003/11/04,13:45,26.6,49,24.1,19.6
 2003/11/04,14:00,26.8,49,24.2,19.7
 2003/11/04,14:15,26.9,48,24.2,19.7
 2003/11/04,14:30,27,48,24.2,19.8
 2003/11/04,14:45,26.8,48,24.2,19.8
 2003/11/04,15:00,26.5,49,24.2,19.9
 2003/11/04,15:15,26.2,49,24.1,19.9
 2003/11/04,15:30,25.9,50,24,20
 2003/11/04,15:45,25.8,50,24,20
 2003/11/04,16:00,25.6,50,23.9,21
 2003/11/04,16:15,25.5,51,24,21
 2003/11/04,16:30,25.4,51,24,21
 2003/11/04,16:45,25.4,51,24.2,21.1
 2003/11/04,17:00,25.4,52,24.2,20.5
 2003/11/04,17:15,25.4,52,24.1,20.5
 2003/11/04,17:30,25.3,52,24,20
 2003/11/04,17:45,25.3,52,23.9,20.1
 2003/11/04,18:00,25.2,52,23.8,20.2
 2003/11/04,18:15,25.1,52,23.8,20.2
 2003/11/04,18:30,25.1,52,23.7,20.3
 2003/11/04,18:45,25.1,51,23.8,20.3
 2003/11/04,19:00,25.2,51,23.6,20.4
 2003/11/04,19:15,25.2,51,23.6,20.4
 2003/11/04,19:30,25.2,51,23.7,20.5
 2003/11/04,19:45,25.2,51,23.7,20.5
 2003/11/04,20:00,25.2,51,23.7,20.6
 2003/11/04,20:15,25.2,52,23.6,20.6
 2003/11/04,20:30,25.3,54,23.7,20.7
 2003/11/04,20:45,25.4,56,23.8,20.7
 2003/11/04,21:00,25.5,55,23.9,20.8
 2003/11/04,21:15,25.5,55,24.2,20.8
 2003/11/04,21:30,25.8,56,24.4,20.9
 2003/11/04,21:45,25.7,55,24.3,20.9
 2003/11/04,22:00,25.7,54,24.3,20.4
 2003/11/04,22:15,25.7,54,24.2,20.5
 2003/11/04,22:30,25.7,54,24.2,19.4
 2003/11/04,22:45,25.7,53,24.2,19.4
 2003/11/04,23:00,25.6,54,24.1,18.8
 2003/11/04,23:15,25.6,54,24.1,18.9
 2003/11/04,23:30,25.6,54,24.1,18.9
 2003/11/04,23:45,25.5,53,24.1,19
 2003/11/05, 0:00,25.4,54,24.1,19
 2003/11/05, 0:15,25.3,54,24.1,19.1
 2003/11/05, 0:30,25.3,54,24,19.2
 2003/11/05, 0:45,25.2,54,24,19.2
 2003/11/05, 1:00,25.1,54,23.9,19.3
 2003/11/05, 1:15,25.1,54,23.9,19.3
 2003/11/05, 1:30,24.9,54,23.8,19.4
 2003/11/05, 1:45,24.9,54,23.8,19.5
 2003/11/05, 2:00,24.9,54,23.6,19.5
 2003/11/05, 2:15,24.8,54,23.7,19.6
 2003/11/05, 2:30,24.8,54,23.6,19.6
 2003/11/05, 2:45,24.8,54,23.5,19.7
 2003/11/05, 3:00,24.7,54,23.5,19.7
 2003/11/05, 3:15,24.7,54,23.5,19.8
 2003/11/05, 3:30,24.7,54,23.5,19.9
 2003/11/05, 3:45,24.6,54,23.5,19.9
 2003/11/05, 4:00,24.6,54,23.4,20
 2003/11/05, 4:15,24.5,54,23.3,20
 2003/11/05, 4:30,24.5,54,23.3,20.1
 2003/11/05, 4:45,24.5,54,23.4,20.2
 2003/11/05, 5:00,24.5,53,23.3,20.2
 2003/11/05, 5:15,24.4,54,23.3,20.3
 2003/11/05, 5:30,24.4,53,23.3,20.3
 2003/11/05, 5:45,24.4,54,23.2,22.4
 2003/11/05, 6:00,24.3,52,23,19.9
 2003/11/05, 6:15,24.2,50,23,19.1
 2003/11/05, 6:30,24.3,50,23.1,19.1
 2003/11/05, 6:45,24.4,50,23.1,19.1
 2003/11/05, 7:00,24.3,50,23.1,19.2
 2003/11/05, 7:15,24.4,50,23.2,19.3
 2003/11/05, 7:30,24.4,51,23.3,19.3
 2003/11/05, 7:45,24.5,50,23.2,18.8
 2003/11/05, 8:00,24.5,51,23.1,18.9
 2003/11/05, 8:15,24.5,52,23.1,18.9
 2003/11/05, 8:30,24.6,52,23,19
 2003/11/05, 8:45,24.6,52,23.1,18.7
 2003/11/05, 9:00,24.6,53,23.1,18.7
 2003/11/05, 9:15,24.6,54,23.1,18.8
 2003/11/05, 9:30,24.7,54,23.1,18.8
 2003/11/05, 9:45,24.7,54,23.2,18.9
 2003/11/05,10:00,24.8,54,23.2,18.9
 2003/11/05,10:15,24.9,54,23.2,19
 2003/11/05,10:30,25.1,54,23.2,19.3
 2003/11/05,10:45,25.2,54,23.3,19.3
 2003/11/05,11:00,25.3,54,23.3,19.3
 2003/11/05,11:15,25.4,54,23.3,19.1
 2003/11/05,11:30,25.5,54,23.4,19.2
 2003/11/05,11:45,25.5,54,23.4,19.2
 2003/11/05,12:00,25.5,54,23.5,19.3
 2003/11/05,12:15,25.5,54,23.5,19.3
 2003/11/05,12:30,25.5,54,23.5,19.4
 2003/11/05,12:45,25.4,54,23.5,19.4
 2003/11/05,13:00,25.4,54,23.6,19.5
 2003/11/05,13:15,25.3,54,23.6,19.5
 2003/11/05,13:30,25.3,54,23.6,19.6
 2003/11/05,13:45,25.3,55,23.5,19.6
 2003/11/05,14:00,25.2,55,23.6,19.7
 2003/11/05,14:15,25.1,55,23.5,20.5
 2003/11/05,14:30,25.1,55,23.5,20.6
 2003/11/05,14:45,25,55,23.5,20.6
 2003/11/05,15:00,25,55,23.5,20.6
 2003/11/05,15:15,24.9,55,23.5,20.7
 2003/11/05,15:30,24.9,55,23.4,20.7
 2003/11/05,15:45,24.9,55,23.4,20.8
 2003/11/05,16:00,24.8,55,23.4,20.8
 2003/11/05,16:15,24.8,55,23.3,20.8
 2003/11/05,16:30,24.8,55,23.3,20.9
 2003/11/05,16:45,25,55,23.5,20.7
 2003/11/05,17:00,24.9,55,23.5,20.8
 2003/11/05,17:15,24.9,55,23.5,20.8
 2003/11/05,17:30,24.8,55,23.6,20.8
 2003/11/05,17:45,24.9,56,23.8,20.9
 2003/11/05,18:00,24.8,56,23.8,20.3
 2003/11/05,18:15,24.8,56,23.5,20.3
 2003/11/05,18:30,24.9,56,23.5,20.4
 2003/11/05,18:45,24.9,56,23.5,20.4
 2003/11/05,19:00,24.9,56,23.5,20.5
 2003/11/05,19:15,25,55,23.5,20.5
 2003/11/05,19:30,25.1,58,23.6,20.8
 2003/11/05,19:45,25.1,59,23.6,20.8
 2003/11/05,20:00,25.1,58,23.6,20.8
 2003/11/05,20:15,25,57,23.5,20.9
 2003/11/05,20:30,25.1,59,23.5,20.9
 2003/11/05,20:45,25.1,59,23.5,20.9
 2003/11/05,21:00,25.2,60,23.7,21
 2003/11/05,21:15,25.3,60,23.7,21
 2003/11/05,21:30,25.4,59,23.9,19.6
 2003/11/05,21:45,25.4,59,23.9,19.7
 2003/11/05,22:00,25.4,59,23.9,19.9
 2003/11/05,22:15,25.4,58,23.8,19.3
 2003/11/05,22:30,25.4,59,23.9,19.4
 2003/11/05,22:45,25.3,59,23.8,19.5
 2003/11/05,23:00,25.2,58,23.7,19.5
 2003/11/05,23:15,25.2,58,23.7,19.6
 2003/11/05,23:30,25.3,58,23.8,19.6
 2003/11/05,23:45,25.4,59,23.9,19.7
 2003/11/06, 0:00,25.5,59,23.9,20.3
 2003/11/06, 0:15,25.5,59,24,20.4
 2003/11/06, 0:30,25.5,59,24,18.9
 2003/11/06, 0:45,25.4,59,24,18.9
 2003/11/06, 1:00,25.3,59,24,19
 2003/11/06, 1:15,25.2,59,24,19
 2003/11/06, 1:30,25.2,59,24,19.1
 2003/11/06, 1:45,25.1,60,24,19.2
 2003/11/06, 2:00,25.1,60,23.9,19.2
 2003/11/06, 2:15,25.1,60,24,19.3
 2003/11/06, 2:30,25,61,24,19.3
 2003/11/06, 2:45,25,61,24,19.4
 2003/11/06, 3:00,25,61,24,19.5
 2003/11/06, 3:15,25,61,23.9,19.5
 2003/11/06, 3:30,25,61,23.9,19.6
 2003/11/06, 3:45,25,61,23.9,19.6
 2003/11/06, 4:00,24.9,61,23.9,19.7
 2003/11/06, 4:15,24.9,61,23.9,19.8
 2003/11/06, 4:30,24.9,61,23.9,19.8
 2003/11/06, 4:45,24.9,61,23.9,19.9
 2003/11/06, 5:00,24.9,61,23.9,19.9
 2003/11/06, 5:15,24.9,61,23.9,20
 2003/11/06, 5:30,25,62,23.9,20.1
 2003/11/06, 5:45,25.1,61,23.9,20.1
 2003/11/06, 6:00,25,61,23.8,20.5
 2003/11/06, 6:15,25.1,61,23.6,19.3
 2003/11/06, 6:30,25.3,65,23.5,19.6
 2003/11/06, 6:45,25.3,63,23.7,19.6
 2003/11/06, 7:00,25.3,61,23.9,19.7
 2003/11/06, 7:15,25.2,61,23.8,19.7
 2003/11/06, 7:30,25.2,60,23.9,19.8
 2003/11/06, 7:45,25.2,60,23.8,20.1
 2003/11/06, 8:00,25.2,59,23.8,20.1
 2003/11/06, 8:15,25.1,59,23.8,19.1
 2003/11/06, 8:30,25.1,59,23.7,19.1
 2003/11/06, 8:45,25.1,59,23.7,19.1
 2003/11/06, 9:00,25.1,59,23.7,19.1
 2003/11/06, 9:15,25,59,23.7,19.2
 2003/11/06, 9:30,25,59,23.7,19.2
 2003/11/06, 9:45,25,59,23.6,19.3
 2003/11/06,10:00,25,59,23.6,19.7
 2003/11/06,10:15,25,59,23.6,19.8
 2003/11/06,10:30,25,59,23.6,19.8
 2003/11/06,10:45,25,59,23.6,19.9
 2003/11/06,11:00,25,59,23.7,19.9
 2003/11/06,11:15,25.1,59,23.7,19.9
 2003/11/06,11:30,25.1,59,23.7,20.8
 2003/11/06,11:45,25.1,59,23.7,20.2
 2003/11/06,12:00,25.1,59,23.7,20.2
 2003/11/06,12:15,25,61,23.7,20.3
 2003/11/06,12:30,25,61,23.7,20.3
 2003/11/06,12:45,24.9,61,23.7,20.4
 2003/11/06,13:00,24.8,61,23.6,20.4
 2003/11/06,13:15,24.8,62,23.6,20.5
 2003/11/06,13:30,24.9,62,23.7,20.5
 2003/11/06,13:45,24.9,63,23.7,20.3
 2003/11/06,14:00,25.1,63,23.8,20.2
 2003/11/06,14:15,25.4,63,23.9,20.2
 2003/11/06,14:30,25.3,63,23.9,20.3
 2003/11/06,14:45,25.3,63,23.9,20.3
 2003/11/06,15:00,25.3,62,23.9,20.4
 2003/11/06,15:15,25.2,62,23.9,20.5
 2003/11/06,15:30,25.1,62,23.9,20.6
 2003/11/06,15:45,25,62,23.9,20.6
 2003/11/06,16:00,25,62,23.8,20.6
 2003/11/06,16:15,24.9,62,23.8,20.7
 2003/11/06,16:30,24.8,62,23.8,20.7
 2003/11/06,16:45,24.8,62,23.7,20.8
 2003/11/06,17:00,24.7,62,23.7,20.8
 2003/11/06,17:15,24.8,63,23.8,19.5
 2003/11/06,17:30,24.8,63,24,19.6
 2003/11/06,17:45,24.9,64,24.1,19.6
 2003/11/06,18:00,25,65,24,19.7
 2003/11/06,18:15,25.1,66,24,19.7
 2003/11/06,18:30,25.1,65,24,19.8
 2003/11/06,18:45,25,65,23.9,19.8
 2003/11/06,19:00,25,64,23.8,19.9
 2003/11/06,19:15,24.9,64,23.8,19.9
 2003/11/06,19:30,24.9,65,23.8,20
 2003/11/06,19:45,24.9,65,23.8,19.6
 2003/11/06,20:00,24.9,65,23.7,19.7
 2003/11/06,20:15,25.1,64,23.8,18.9
 2003/11/06,20:30,25.2,64,23.9,19
 2003/11/06,20:45,25.2,65,23.9,19
 2003/11/06,21:00,25.2,64,23.9,19.1
 2003/11/06,21:15,25.2,64,24,19.1
 2003/11/06,21:30,25.1,64,23.9,19.7
 2003/11/06,21:45,25.1,64,23.8,19.1
 2003/11/06,22:00,25.2,63,23.8,19.1
 2003/11/06,22:15,25.2,63,23.8,19.2
 2003/11/06,22:30,25.2,63,23.9,19.2
 2003/11/06,22:45,25.2,63,24,19.3
 2003/11/06,23:00,25.2,63,24,19.3
 2003/11/06,23:15,25.2,64,24,19.4
 2003/11/06,23:30,25.2,62,24,19.4
 2003/11/06,23:45,25.3,62,24.1,19.5
 2003/11/07, 0:00,25.3,62,24.1,20.4
 2003/11/07, 0:15,25.3,62,24.1,19.3
 2003/11/07, 0:30,25.3,62,24.1,19.2
 2003/11/07, 0:45,25.3,62,24,19.3
 2003/11/07, 1:00,25.3,61,24,19.3
 2003/11/07, 1:15,25.2,61,24,19.4
 2003/11/07, 1:30,25.1,61,24,19.4
 2003/11/07, 1:45,25,61,23.9,19.5
 2003/11/07, 2:00,24.9,61,23.9,19.5
 2003/11/07, 2:15,24.8,61,23.9,19.6
 2003/11/07, 2:30,24.7,61,23.9,19.7
 2003/11/07, 2:45,24.7,61,23.8,19.7
 2003/11/07, 3:00,24.6,61,23.8,19.8
 2003/11/07, 3:15,24.6,61,23.7,19.8
 2003/11/07, 3:30,24.6,61,23.7,19.9
 2003/11/07, 3:45,24.6,61,23.7,19.9
 2003/11/07, 4:00,24.5,61,23.7,20
 2003/11/07, 4:15,24.4,61,23.6,20.1
 2003/11/07, 4:30,24.5,61,23.6,20.1
 2003/11/07, 4:45,24.4,61,23.6,20.2
 2003/11/07, 5:00,24.4,61,23.6,20.3
 2003/11/07, 5:15,24.4,61,23.5,20.3
 2003/11/07, 5:30,24.4,61,23.5,20.4
 2003/11/07, 5:45,24.4,61,23.6,20.8
 2003/11/07, 6:00,24.4,60,23.5,19.8
 2003/11/07, 6:15,24.4,60,23.7,19.3
 2003/11/07, 6:30,24.5,61,23.7,19.3
 2003/11/07, 6:45,24.6,59,23.7,19.4
 2003/11/07, 7:00,24.6,59,23.6,19.4
 2003/11/07, 7:15,24.7,59,23.6,19.5
 2003/11/07, 7:30,24.8,59,23.6,19.5
 2003/11/07, 7:45,24.8,59,23.6,19.2
 2003/11/07, 8:00,24.8,59,23.6,19.3
 2003/11/07, 8:15,24.8,59,23.5,18.7
 2003/11/07, 8:30,24.8,59,23.6,18.7
 2003/11/07, 8:45,24.8,59,23.5,18.8
 2003/11/07, 9:00,24.8,59,23.5,18.8
 2003/11/07, 9:15,24.8,59,23.5,18.9
 2003/11/07, 9:30,24.8,59,23.5,19
 2003/11/07, 9:45,24.8,59,23.5,19.6
 2003/11/07,10:00,24.7,59,23.5,19.6
 2003/11/07,10:15,24.8,60,23.4,19.7
 2003/11/07,10:30,25,60,23.5,19.4
 2003/11/07,10:45,25.2,60,23.6,19.4
 2003/11/07,11:00,25.4,59,23.6,19.4
 2003/11/07,11:15,25.5,59,23.7,19.5
 2003/11/07,11:30,25.7,59,23.7,19.5
 2003/11/07,11:45,25.9,58,23.8,19.6
 2003/11/07,12:00,26,58,23.9,19.6
 2003/11/07,12:15,26.1,57,24,19.7
 2003/11/07,12:30,26.4,57,24.1,19.7
 2003/11/07,12:45,26.6,56,24.1,19.8
 2003/11/07,13:00,26.6,56,24.2,19.8
 2003/11/07,13:15,26.5,56,24.2,19.9
 2003/11/07,13:30,26.7,55,24.2,19.9
 2003/11/07,13:45,26.9,55,24.3,20
 2003/11/07,14:00,27,55,24.4,20.1
 2003/11/07,14:15,27.1,55,24.4,20.1
 2003/11/07,14:30,27.1,55,24.4,20.2
 2003/11/07,14:45,27,55,24.4,20.3
 2003/11/07,15:00,26.6,55,24.4,20.3
 2003/11/07,15:15,26.3,56,24.3,20.4
 2003/11/07,15:30,26.1,57,24.4,21.9
 2003/11/07,15:45,26,57,24.5,21.1
 2003/11/07,16:00,25.9,57,24.4,21.2
 2003/11/07,16:15,25.7,58,24.3,21.2
 2003/11/07,16:30,25.6,58,24.3,21.2
 2003/11/07,16:45,25.5,58,24.2,21.3
 2003/11/07,17:00,25.5,58,24.4,21.3
 2003/11/07,17:15,25.5,58,24.3,20.7
 2003/11/07,17:30,25.3,58,24.2,20.8
 2003/11/07,17:45,25.3,58,24.2,20.8
 2003/11/07,18:00,25.2,58,24.2,20.9
 2003/11/07,18:15,25.3,58,24.2,20.2
 2003/11/07,18:30,25.4,60,24.2,20.2
 2003/11/07,18:45,25.4,60,24.2,20.3
 2003/11/07,19:00,25.3,59,23.9,20.3
 2003/11/07,19:15,25.3,58,24,20.4
 2003/11/07,19:30,25.3,58,23.9,20.4
 2003/11/07,19:45,25.4,59,23.8,20.5
 2003/11/07,20:00,25.5,59,24,20.5